Regional Weather Roundup
Issued by NWS Sterling, VA

Home | Current Version | Previous Version | Text Only | Print | Product List | Glossary Off
Versions: 1 2 3 4 5 6 7 8 9 10 11 12 13 14 15 16 17 18 19 20 21 22 23 24 25 26 27 28 29 30 31 32 33 34 35 36 37 38 39 40 41 42 43 44 45 46 47 48 49 50

000
ASUS41 KLWX 220710
RWRLWX

REGIONAL WEATHER ROUNDUP
NATIONAL WEATHER SERVICE BALTIMORE MD/WASHINGTON DC
300 AM EDT TUE JUL 22 2014

Note: "FAIR" indicates few or no clouds below 12,000 feet
with no significant weather and/or obstructions to visibility.
 TC=TEMPERATURE CELSIUS

 * =Non NWS site. Station does not report precipitation (e.g. rain,
    snow, etc.), thunder, or fog.

DCZ001-MDZ009-015-VAZ040>042-051-053>054-220800-
WASHINGTON METRO
  /KDAA//-FT BELVOIR

CITY           SKY/WX    TMP DP  RH WIND       PRES   REMARKS
WASHINGTON NAT MOCLDY    74  68  81 S6        30.17F
DULLES         MOCLDY    71  69  93 S3        30.17F
ANDREWS AFB    PTCLDY    69  68  98 SE3       30.17F
QUANTICO       PTCLDY    74  69  85 W3        30.17F
COLLEGE PARK*  CLOUDY    70  70 100 CALM      30.16F
LEESBURG*      PTCLDY    72  72 100 S6        30.18S
MANASSAS*      CLOUDY    72  72 100 CALM      30.16F
GAITHERSBURG*  CLEAR     72  66  83 CALM      30.21S

$$

MDZ006>007-011-014-220800-
BALTIMORE METRO

CITY           SKY/WX    TMP DP  RH WIND       PRES   REMARKS
BWI AIRPORT    PTCLDY    71  68  90 S3        30.16F
MD SCIENCE CTR   N/A     74  68  81 MISG      30.17S
MARTIN STATE   MOCLDY    75  72  88 S5        30.17F
ANNAPOLIS      CLEAR     73  68  84 VRB5      30.16F
FORT MEADE*    PTCLDY    64  63  94 CALM      30.19S

$$

MDZ012-015-019>023-220800-
MARYLAND EASTERN SHORE

CITY           SKY/WX    TMP DP  RH WIND       PRES   REMARKS
OCEAN CITY     PTCLDY    63  62  97 NW3       30.17F FOG
SALISBURY      NOT AVBL
BAY BRIDGE AP*   N/A     73  70  88 S6        30.16F
CAMBRIDGE*     CLEAR     70  64  83 CALM      30.17S
EASTON*        PTCLDY    71  71 100 CALM      30.21S

$$

MDZ017>025-220800-
SOUTHERN MARYLAND

CITY           SKY/WX    TMP DP  RH WIND       PRES   REMARKS
PATUXENT RIVER PTCLDY    68  66  93 SW3       30.16F
ST INIGOES     PTCLDY    69  65  86 CALM      30.16F
LEONARDTOWN*     N/A    N/A N/A N/A MISG        N/A

$$

MDZ003>005-220800-
NORTH CENTRAL MARYLAND

CITY           SKY/WX    TMP DP  RH WIND       PRES   REMARKS
FREDERICK*     MOCLDY    68  68 100 CALM      30.19S
HAGERSTOWN APT CLEAR     71  67  87 S6        30.16F
WESTMINSTER*   PTCLDY    70  68  94 S5        30.18F

$$

MDZ501>502-220800-
WESTERN MARYLAND

CITY           SKY/WX    TMP DP  RH WIND       PRES   REMARKS
OAKLAND*       CLEAR     63 N/A N/A S7        30.23F FOG
CUMBERLAND*    PTCLDY    72  70  94 CALM      30.18F

$$

VAZ025>031-220800-
SHENANDOAH VALLEY

CITY           SKY/WX    TMP DP  RH WIND       PRES   REMARKS
WINCHESTER*    CLEAR     72  68  88 S5        30.16F
STAUNTON*      DRIZZLE   71  68  92 S5        30.21S

$$

WVZ021-048>050-054>055-220800-
EASTERN WEST VIRGINIA PANHANDLE

CITY           SKY/WX    TMP DP  RH WIND       PRES   REMARKS
MARTINSBURG    CLEAR     69  66  90 CALM      30.16F
PETERSBURG*    CLOUDY    65  61  87 CALM      30.18S FOG

$$

VAZ036>039-050-220800-
CENTRAL FOOTHILLS

CITY           SKY/WX    TMP DP  RH WIND       PRES   REMARKS
CHARLOTTESVILL CLOUDY    73  70  90 S3        30.17F
ORANGE*        CLOUDY    72  70  94 CALM      30.18F

$$

VAZ055>057-220800-
NORTH AND CENTRAL PIEDMONT

CITY           SKY/WX    TMP DP  RH WIND       PRES   REMARKS
FREDERICKSBRG* PTCLDY    71  71 100 CALM      30.16F
STAFFORD*      PTCLDY    69  69 100 CALM      30.20F FOG

$$

NCZ024-NYZ072-PAZ021-071-VAZ022-071-220800-
OTHER REGIONAL OBSERVATIONS

CITY           SKY/WX    TMP DP  RH WIND       PRES   REMARKS
NEW YORK CITY  CLEAR     72  59  63 VRB5      30.19S
PHILADELPHIA   CLEAR     72  62  71 SW6       30.17F
PITTSBURGH     CLEAR     72  68  87 CALM      30.13F
ROANOKE        CLOUDY    72  69  90 SE3       30.19F
RICHMOND       MOCLDY    71  68  90 CALM      30.16F
RALEIGH        CLOUDY    72  70  93 NE3       30.14F FOG

$$

ANZ530>537-220800-
MARINE OBSERVATIONS

STATION/POSITION TIME  TEMP    WIND        PRES
                       AIR SEA DIR/SP/G
                 (UTC) (F)     (DEG/KT/KT) (MB)
THOMAS PT LIGHT  0700   75 79  230/ 10/ 10 1021.9F
BALT KEY BRIDGE  0700   74     190/  6/  7 1021.1F
COVE POINT       0700   74     220/  6/  7 1021.4F
LEWISETTA        0700   73 80  220/  2/  3 1021.2F
SOLOMONS ISLAND  0700      81                N/A
PINEY POINT      0700          190/  4/  5   N/A

$$



USA.gov is the U.S. government's official web portal to all federal, state and local government web resources and services.